Location: Chabot Space and Science Center
(37.8191°N, 122.1819°W)
Time: 13:46:10
(UTC-08:00)

Hubble Space Telescope - Pass Details

Date: 14 December 2021
Orbit: 535 x 538 km, 28.5° (Epoch: 22 January)

Event Time Altitude Azimuth Distance (km) Brightness Sun altitude
Rises 18:32:13 0° 214° (SW) 2,666 5.1 -19.4°
Reaches altitude 10° 18:35:59 10° 180° (S) 1,778 3.6 -20.1°
Maximum altitude 18:37:16 11° 161° (SSE) 1,699 3.3 -20.4°
Enters shadow 18:37:45 11° 154° (SSE) 1,711 3.2 -20.5°
